TimeEST,TemperatureF,Dew PointF,Humidity,Sea Level PressureIn,VisibilityMPH,Wind Direction,Wind SpeedMPH,Gust SpeedMPH,PrecipitationIn,Events,Conditions,WindDirDegrees,DateUTC
12:53 AM,46.4,44.6,93,30.11,6.0,East,19.6,27.6,N/A,Rain,Rain,100,2011-11-23 05:53:00
1:21 AM,48.2,46.4,93,30.09,4.0,East,15.0,23.0,0.04,Rain,Rain,90,2011-11-23 06:21:00
1:29 AM,48.2,46.4,93,30.08,3.0,East,16.1,24.2,0.06,Rain,Rain,90,2011-11-23 06:29:00
1:53 AM,48.0,46.9,96,30.05,3.0,East,20.7,26.5,0.15,Rain,Heavy Rain,90,2011-11-23 06:53:00
2:18 AM,48.2,46.4,93,30.01,3.0,East,20.7,27.6,0.09,Rain,Heavy Rain,100,2011-11-23 07:18:00
2:53 AM,48.0,46.9,96,29.96,4.0,East,24.2,32.2,0.19,Rain,Rain,90,2011-11-23 07:53:00
3:53 AM,50.0,48.9,96,29.88,3.0,ESE,26.5,34.5,0.15,Rain,Rain,110,2011-11-23 08:53:00
4:06 AM,51.8,50.0,94,29.86,2.5,ESE,24.2,35.7,0.06,Rain,Rain,110,2011-11-23 09:06:00
4:30 AM,51.8,51.8,100,29.83,3.0,ESE,28.8,40.3,0.13,Rain,Light Rain,120,2011-11-23 09:30:00
4:53 AM,52.0,51.1,97,29.80,4.0,SE,31.1,41.4,0.16,Rain,Light Rain,130,2011-11-23 09:53:00
5:34 AM,53.6,53.6,100,29.76,2.5,SE,20.7,27.6,0.09,Rain,Light Rain,130,2011-11-23 10:34:00
5:41 AM,55.4,53.6,94,29.74,5.0,SE,29.9,39.1,0.09,Rain,Light Rain,140,2011-11-23 10:41:00
5:53 AM,55.0,54.0,96,29.75,3.0,SE,20.7,34.5,0.11,Rain,Light Rain,140,2011-11-23 10:53:00
6:09 AM,55.4,55.4,100,29.73,4.0,SSE,16.1,25.3,0.01,Rain,Light Rain,160,2011-11-23 11:09:00
6:53 AM,59.0,57.2,94,29.71,6.0,South,25.3,33.4,N/A,Rain,Light Rain,190,2011-11-23 11:53:00
7:32 AM,59.0,57.2,94,29.69,4.0,South,24.2,33.4,0.00,,Overcast,190,2011-11-23 12:32:00
7:53 AM,59.0,57.9,96,29.68,4.0,South,24.2,34.5,0.00,,Overcast,190,2011-11-23 12:53:00
8:53 AM,59.0,57.9,96,29.63,3.0,South,24.2,32.2,0.02,Rain,Light Rain,190,2011-11-23 13:53:00
9:01 AM,60.8,59.0,94,29.62,3.0,South,23.0,33.4,0.00,,Overcast,190,2011-11-23 14:01:00
9:53 AM,59.0,57.9,96,29.61,3.0,South,18.4,26.5,0.14,Rain,Light Rain,190,2011-11-23 14:53:00
9:55 AM,59.0,57.2,94,29.60,1.2,South,18.4,25.3,0.00,Rain,Light Rain,190,2011-11-23 14:55:00
9:59 AM,59.0,59.0,100,29.60,1.2,South,23.0,28.8,0.02,Rain,Rain,190,2011-11-23 14:59:00
10:46 AM,60.8,59.0,94,29.57,0.8,SW,23.0,31.1,0.24,Rain,Heavy Rain,220,2011-11-23 15:46:00
10:53 AM,59.0,57.9,96,29.57,0.8,SSW,17.3,29.9,0.25,Rain,Rain,210,2011-11-23 15:53:00
11:00 AM,57.2,57.2,100,29.56,1.2,SW,15.0,-,0.02,Rain,Heavy Rain,220,2011-11-23 16:00:00
11:06 AM,57.2,57.2,100,29.55,1.0,SW,15.0,-,0.07,Rain,Heavy Rain,220,2011-11-23 16:06:00
11:10 AM,57.2,57.2,100,29.54,0.8,SW,13.8,-,0.07,Rain,Rain,220,2011-11-23 16:10:00
11:13 AM,57.2,57.2,100,29.54,1.0,SSW,13.8,-,0.08,Rain,Light Rain,210,2011-11-23 16:13:00
11:27 AM,57.2,57.2,100,29.52,1.0,South,11.5,-,0.12,Rain,Rain,190,2011-11-23 16:27:00
11:35 AM,57.2,57.2,100,29.51,0.8,South,10.4,-,0.14,Rain,Rain,190,2011-11-23 16:35:00
11:42 AM,57.2,57.2,100,29.49,1.0,South,11.5,-,0.15,Rain,Light Rain,190,2011-11-23 16:42:00
11:53 AM,57.0,57.0,100,29.48,1.2,South,12.7,-,0.19,Rain,Heavy Rain,180,2011-11-23 16:53:00
12:00 PM,57.2,57.2,100,29.46,0.8,South,19.6,31.1,0.07,Rain,Heavy Rain,180,2011-11-23 17:00:00
12:06 PM,59.0,59.0,100,29.50,1.0,WSW,23.0,35.7,0.13,Rain,Heavy Rain,250,2011-11-23 17:06:00
12:10 PM,59.0,57.2,94,29.50,1.0,West,15.0,35.7,0.14,Rain,Heavy Rain,270,2011-11-23 17:10:00
12:16 PM,59.0,57.2,94,29.49,2.0,West,11.5,27.6,0.15,Rain,Rain,270,2011-11-23 17:16:00
12:24 PM,59.0,57.2,94,29.50,4.0,WSW,12.7,-,0.16,Rain,Light Rain,250,2011-11-23 17:24:00
12:34 PM,57.2,57.2,100,29.50,6.0,West,15.0,21.9,0.16,Rain,Light Rain,270,2011-11-23 17:34:00
12:53 PM,55.0,54.0,96,29.51,4.0,NW,13.8,24.2,0.16,Rain,Rain,310,2011-11-23 17:53:00
1:03 PM,53.6,53.6,100,29.50,7.0,NW,12.7,-,0.01,Rain,Light Rain,320,2011-11-23 18:03:00
1:53 PM,50.0,48.9,96,29.55,10.0,NNW,18.4,25.3,0.01,,Overcast,330,2011-11-23 18:53:00
2:53 PM,48.0,46.9,96,29.55,9.0,NNW,23.0,32.2,0.01,Rain,Light Rain,340,2011-11-23 19:53:00
3:53 PM,48.0,46.0,93,29.59,9.0,North,24.2,34.5,0.00,Rain,Light Rain,350,2011-11-23 20:53:00
4:53 PM,46.0,44.1,93,29.60,10.0,North,28.8,38.0,0.00,,Overcast,350,2011-11-23 21:53:00
5:53 PM,45.0,42.1,90,29.64,8.0,North,27.6,36.8,0.00,Rain,Light Rain,360,2011-11-23 22:53:00
6:53 PM,44.1,41.0,89,29.69,8.0,North,27.6,42.6,0.00,Rain,Light Rain,350,2011-11-23 23:53:00
7:53 PM,43.0,39.9,89,29.71,10.0,North,29.9,40.3,0.00,Rain,Light Rain,10,2011-11-24 00:53:00
8:00 PM,42.8,39.2,87,29.71,10.0,North,29.9,40.3,0.00,,Overcast,10,2011-11-24 01:00:00
8:43 PM,42.8,37.4,81,29.75,10.0,North,31.1,39.1,0.00,,Overcast,10,2011-11-24 01:43:00
8:53 PM,42.1,37.9,85,29.75,10.0,North,28.8,39.1,0.00,,Overcast,360,2011-11-24 01:53:00
9:43 PM,42.8,37.4,81,29.76,10.0,North,28.8,38.0,0.00,Rain,Light Rain,350,2011-11-24 02:43:00
9:53 PM,42.8,37.4,81,29.77,10.0,North,28.8,43.7,N/A,,Overcast,360,2011-11-24 02:53:00
10:53 PM,41.0,37.0,86,29.80,10.0,North,31.1,40.3,0.00,Rain,Light Rain,360,2011-11-24 03:53:00
11:27 PM,41.0,35.6,81,29.81,10.0,North,33.4,43.7,0.00,,Overcast,360,2011-11-24 04:27:00
11:53 PM,39.9,36.0,86,29.83,10.0,North,31.1,38.0,0.00,Rain,Light Rain,360,2011-11-24 04:53:00